STARLINK-35326, 66031

Orbit data source: Space-Track

STARLINK-35326, 66031 is a payload satellite owned by SpaceX/Seattle (US) in LEO that was launched on Thu, 16 Oct 2025 UTC via an FALCON 9 launch vehicle from the Air Force Eastern Test Range (AFETR). Payload-class satellites include a variety of spacecraft equipped with specific instruments for various scientific and technological missions. These include communications satellites like Starlink; space stations such as the ISS; scientific satellites like the Hubble; Earth observation satellites from companies like Planet Labs, Umbra, and HawkEye 360; GPS; miniature CubeSats for education and research; and military/defense satellites.

Loading next visibility...
Identifier
66031, 2025-232AC
Orbit
LEO
Country
Flag of USUS
Related business
Manufacturer
SpaceX/Seattle
Mission
Operational Commercial Communications
Bus & Motor
STARLINK V2MO, Unknown motor
Mass
575 kg wet, ~530 kg dry
Launch date (UTC)
2025-10-16 (8 months ago)
Launch vehicle
FALCON 9
Launch site
Air Force Eastern Test Range (AFETR)
Object type
Payload
Rocket body
Debris
Shape & HBR
Box + 2 Pan, 17.7 m
Radar Cross Section
36.964 m², Large (>1 m²)

Expand to show TLE details & history
Last TLE update: 12 hours ago

TLE from 12 hours ago
0 STARLINK-35326
1 66031U 25232AC  26171.46409325  .00018743  00000-0  56435-3 0  9999
2 66031  53.1613 345.6084 0000772  97.9916 262.1174 15.34406754 39187
Epoch: 2026-06-20T11:08Z
TLE epoch observation values (Epoch: 2026-06-20T11:08:17.656Z)
Latitude
-0.00006°
Longitude
-90.14355°
Altitude
463.657 km
Speed
7.636 km/s
True Right ascension
23h 02m 26s
True Declination
0° 00' 00"
Sunlit
Object was in daylight at epoch
Visualization orbit readout
Latitude
Unknown
Longitude
Unknown
Altitude
Unknown
Speed
Unknown
Apparent Right ascension
Unknown
Apparent Declination
Unknown
Sunlit
N/A
Visualization observer readout
Local Sidereal Time
10:18:40
Azimuth
Unknown
Elevation
Unknown
Doppler factor
Unknown
Orbital elements
Apogee altitude
463.468 km
Perigee altitude
462.412 km
Semi-major axis
6,841.077 km
Eccentricity
0.00008
Inclination
53.1613°
RAAN
345.6084°
Arg. of periapsis
97.9916°
True anomaly
262.10864°
Mean anomaly
262.1174°
Eccentric anomaly
262.11302°
Mean motion
3.8358 °/min
Orbital period
93.85 mins
BSTAR
0.00056435
Loading maneuver chart data...
Computing Atmospheric mass density...
Loading historical data...
Loading historical data...
Loading historical data...
Loading historical data...
Loading historical data...
Loading historical data...
Loading historical data...

Documentation

Showing up to 5 results
|